Regional Weather Roundup
Issued by NWS

Home | Current Version | Previous Version | Text Only | Print | Product List | Glossary Off
Versions: 1 2 3 4 5 6 7 8 9 10 11 12 13 14 15 16 17 18 19 20 21 22 23 24 25 26 27 28 29 30 31 32 33 34 35 36 37 38 39 40 41 42 43 44 45 46 47 48 49 50

000
ASUS45 KBOI 271610
RWRID
WEATHER ROUNDUP FOR IDAHO
NATIONAL WEATHER SERVICE BOISE ID
900 AM MST SAT DEC 27 2014

NOTE: "FAIR" INDICATES FEW OR NO CLOUDS BELOW 12000 FEET
WITH NO SIGNIFICANT WEATHER AND/OR OBSTRUCTIONS TO VISIBILITY

IDZ012-014-271700-
SOUTHWEST IDAHO


CITY           SKY/WX    TMP DP  RH WIND       PRES   REMARKS
BOISE          MOCLDY    24  16  71 SE9       30.32S WCI  14
CALDWELL       MOCLDY    25  14  63 NE5       30.36S WCI  19
MOUNTAIN HOME  MOCLDY    22  19  87 E9        30.34F WCI  12
$$

IDZ016-017-271700-
SOUTHCENTRAL IDAHO


CITY           SKY/WX    TMP DP  RH WIND       PRES   REMARKS
BURLEY         CLOUDY    25  16  68 S10       30.29R WCI  15
JEROME         MOCLDY    20  14  77 CALM      30.31S
TWIN FALLS     MOCLDY    26  14  60 S14       30.30S WCI  14
$$

IDZ019>023-271700-
SOUTHEAST IDAHO


CITY           SKY/WX    TMP DP  RH WIND       PRES   REMARKS
IDAHO FALLS    CLOUDY    10   7  87 N7        30.29R WCI  -1
POCATELLO      MOCLDY    21  17  84 SW7       30.30R WCI  12
REXBURG        CLOUDY     8   5  87 CALM      30.27R
$$

IDZ006-010-011-018-031-032-271700-
CENTRAL IDAHO MOUNTAINS


CITY           SKY/WX    TMP DP  RH WIND       PRES   REMARKS
MCCALL         CLOUDY    12   8  84 E3        30.22R
HAILEY         MOCLDY     5  -2  72 NW8       30.24S WCI  -8
STANLEY          N/A     -8 -13  78 CALM      30.23R
SALMON         MOCLDY    18   9  68 S7        30.25S WCI   8
CHALLIS        CLOUDY     6   1  80 CALM      30.25R
$$

IDZ002-004-006-007-026-271700-
NORTHERN IDAHO


CITY           SKY/WX    TMP DP  RH WIND       PRES   REMARKS
LEWISTON       CLOUDY    32  26  78 N3        30.22F
LOWELL           N/A     32  30  92 CALM      30.29F
COEUR D`ALENE  CLOUDY    30  28  93 S7        30.15S WCI  23
MULLAN PASS    LGT SNOW  20  15  81 VRB6      29.99F WCI  12
$$



USA.gov is the U.S. government's official web portal to all federal, state and local government web resources and services.